| time (UTC) | temp F | wind direction | speed knots | gust knots | rain 1hr in | rain 24hr in | rain mn in | humidity % | barometer mb |
| 20260508225022 | 60 | 0.0 | 0.0 | 0.00 | 0.15 | 0.00 | 90 | 1017.2 | |
| 20260508224019 | 60 | 0.0 | 0.0 | 0.00 | 0.15 | 0.00 | 90 | 1017.2 | |
| 20260508223040 | 60 | 0.0 | 0.0 | 0.00 | 0.15 | 0.00 | 90 | 1017.2 | |
| 20260508222017 | 60 | 0.0 | 0.0 | 0.00 | 0.15 | 0.00 | 90 | 1017.5 | |
| 20260508221018 | 60 | 0.0 | 0.0 | 0.00 | 0.15 | 0.00 | 89 | 1017.5 | |
| 20260508220017 | 60 | 0.0 | 0.0 | 0.00 | 0.15 | 0.00 | 90 | 1017.4 | |
| 20260508215017 | 60 | 0.0 | 0.0 | 0.00 | 0.15 | 0.00 | 89 | 1017.4 | |
| 20260508214021 | 60 | 0.0 | 0.0 | 0.00 | 0.15 | 0.00 | 89 | 1017.5 | |
| 20260508213043 | 61 | 0.0 | 0.0 | 0.00 | 0.15 | 0.00 | 90 | 1017.4 | |
| 20260508212021 | 60 | 0.0 | 0.9 | 0.00 | 0.15 | 0.00 | 89 | 1017.6 | |
| 20260508211019 | 61 | 0.0 | 0.9 | 0.00 | 0.15 | 0.00 | 89 | 1017.5 | |
| 20260508210019 | 61 | 0.0 | 0.9 | 0.00 | 0.15 | 0.15 | 89 | 1017.5 | |
| 20260508205019 | 61 | 0.0 | 0.9 | 0.00 | 0.15 | 0.15 | 89 | 1017.6 | |
| 20260508204018 | 61 | 0.0 | 1.7 | 0.00 | 0.15 | 0.15 | 89 | 1017.6 | |
| 20260508203018 | 61 | 0.0 | 1.7 | 0.00 | 0.15 | 0.15 | 89 | 1017.5 | |
| 20260508202020 | 61 | 0.0 | 0.9 | 0.00 | 0.15 | 0.15 | 89 | 1017.4 | |
| 20260508201018 | 61 | 0.0 | 0.9 | 0.00 | 0.15 | 0.15 | 89 | 1017.5 | |
| 20260508200018 | 61 | 0 | 0.9 | 1.7 | 0.00 | 0.15 | 0.15 | 89 | 1017.7 |
| 20260508195041 | 61 | 0.0 | 1.7 | 0.00 | 0.15 | 0.15 | 89 | 1017.6 | |
| 20260508194018 | 61 | 0.0 | 0.9 | 0.00 | 0.15 | 0.15 | 88 | 1017.8 | |
| 20260508193020 | 61 | 0.0 | 0.0 | 0.00 | 0.15 | 0.15 | 88 | 1017.4 | |
| 20260508192018 | 61 | 0.0 | 0.9 | 0.00 | 0.15 | 0.15 | 88 | 1017.5 | |
| 20260508191019 | 62 | 0.0 | 0.9 | 0.00 | 0.15 | 0.15 | 88 | 1017.4 | |
| 20260508190018 | 62 | 0.0 | 0.0 | 0.00 | 0.15 | 0.15 | 88 | 1017.4 | |
| 20260508185018 | 62 | 0 | 0.9 | 1.7 | 0.00 | 0.15 | 0.15 | 88 | 1017.3 |
| 20260508184019 | 62 | 0.0 | 0.9 | 0.00 | 0.15 | 0.15 | 88 | 1017.1 | |
| 20260508183018 | 62 | 0 | 0.9 | 2.6 | 0.00 | 0.15 | 0.15 | 88 | 1017.1 |
| 20260508182019 | 62 | 0 | 0.9 | 4.3 | 0.00 | 0.15 | 0.15 | 87 | 1017.0 |
| 20260508181019 | 62 | 0 | 0.9 | 3.5 | 0.00 | 0.15 | 0.15 | 87 | 1016.7 |
| 20260508180018 | 62 | 0.0 | 0.9 | 0.00 | 0.15 | 0.15 | 87 | 1016.8 | |
| 20260508175039 | 62 | 0.0 | 1.7 | 0.00 | 0.15 | 0.15 | 87 | 1016.6 | |
| 20260508174018 | 62 | 0.0 | 0.9 | 0.00 | 0.15 | 0.15 | 87 | 1016.5 | |
| 20260508173039 | 62 | 0.0 | 0.9 | 0.00 | 0.15 | 0.15 | 87 | 1016.6 | |
| 20260508172041 | 62 | 0.0 | 1.7 | 0.00 | 0.15 | 0.15 | 86 | 1016.4 | |
| 20260508171020 | 62 | 0 | 0.9 | 3.5 | 0.00 | 0.15 | 0.15 | 86 | 1016.4 |
| 20260508165018 | 63 | 0 | 0.9 | 1.7 | 0.00 | 0.15 | 0.15 | 86 | 1016.4 |
| 20260508164018 | 63 | 0 | 0.9 | 1.7 | 0.00 | 0.15 | 0.15 | 86 | 1016.6 |
| 20260508163039 | 63 | 0.0 | 0.0 | 0.00 | 0.15 | 0.15 | 86 | 1016.6 | |
| 20260508162017 | 63 | 0.0 | 0.0 | 0.01 | 0.15 | 0.15 | 85 | 1016.4 | |
| 20260508161018 | 63 | 0.0 | 0.0 | 0.01 | 0.15 | 0.15 | 85 | 1016.3 | |
| 20260508160018 | 64 | 0.0 | 0.9 | 0.01 | 0.15 | 0.15 | 85 | 1016.6 | |
| 20260508155017 | 64 | 0 | 0.9 | 2.6 | 0.01 | 0.15 | 0.15 | 85 | 1016.2 |
| 20260508154017 | 64 | 0.0 | 0.9 | 0.01 | 0.15 | 0.15 | 85 | 1016.3 | |
| 20260508153019 | 64 | 0.0 | 1.7 | 0.01 | 0.15 | 0.15 | 85 | 1016.3 | |
| 20260508152042 | 64 | 0.0 | 1.7 | 0.00 | 0.14 | 0.14 | 85 | 1016.2 | |
| 20260508151042 | 64 | 0.0 | 3.5 | 0.00 | 0.14 | 0.14 | 85 | 1016.3 | |
| 20260508145018 | 65 | 0 | 0.9 | 1.7 | 0.00 | 0.14 | 0.14 | 85 | 1016.4 |
| 20260508144040 | 65 | 0.0 | 1.7 | 0.00 | 0.14 | 0.14 | 85 | 1016.3 | |
| 20260508143018 | 64 | 0.0 | 1.7 | 0.00 | 0.14 | 0.14 | 84 | 1016.2 | |
| 20260508142018 | 64 | 0 | 0.9 | 1.7 | 0.00 | 0.14 | 0.14 | 84 | 1016.4 |
| 20260508141019 | 64 | 0.0 | 1.7 | 0.00 | 0.14 | 0.14 | 84 | 1016.2 | |
| 20260508140017 | 64 | 0 | 1.7 | 3.5 | 0.00 | 0.14 | 0.14 | 84 | 1016.4 |
| 20260508135039 | 64 | 0 | 1.7 | 3.5 | 0.00 | 0.14 | 0.14 | 84 | 1016.4 |
| 20260508134017 | 64 | 0 | 2.6 | 4.3 | 0.00 | 0.14 | 0.14 | 84 | 1016.5 |
| 20260508133019 | 64 | 0 | 3.5 | 7.8 | 0.00 | 0.14 | 0.14 | 85 | 1016.6 |
| 20260508132019 | 63 | 0 | 2.6 | 7.0 | 0.00 | 0.14 | 0.14 | 85 | 1016.7 |
| 20260508131017 | 63 | 0 | 3.5 | 7.0 | 0.01 | 0.14 | 0.14 | 85 | 1016.8 |
| 20260508130018 | 63 | 0 | 3.5 | 7.0 | 0.01 | 0.14 | 0.14 | 86 | 1016.9 |
| 20260508125144 | 63 | 0 | 1.7 | 5.2 | 0.01 | 0.14 | 0.14 | 86 | 1017.1 |
| 20260508124038 | 63 | 0 | 2.6 | 4.3 | 0.02 | 0.14 | 0.14 | 87 | 1017.2 |
| 20260508123017 | 63 | 0 | 0.9 | 2.6 | 0.04 | 0.14 | 0.14 | 87 | 1017.1 |
| 20260508122019 | 63 | 0 | 1.7 | 4.3 | 0.06 | 0.14 | 0.14 | 87 | 1017.3 |
| 20260508121017 | 63 | 0.0 | 2.6 | 0.06 | 0.13 | 0.13 | 87 | 1017.4 | |
| 20260508120019 | 63 | 0.0 | 1.7 | 0.07 | 0.13 | 0.13 | 87 | 1017.7 | |
| 20260508115018 | 63 | 0.0 | 1.7 | 0.08 | 0.13 | 0.13 | 87 | 1017.8 | |
| 20260508114021 | 63 | 0.0 | 0.9 | 0.08 | 0.13 | 0.13 | 87 | 1018.1 | |
| 20260508113019 | 63 | 0.0 | 0.9 | 0.06 | 0.10 | 0.10 | 87 | 1018.3 | |
| 20260508112019 | 64 | 0.0 | 1.7 | 0.05 | 0.09 | 0.09 | 87 | 1018.4 | |
| 20260508111022 | 64 | 0.0 | 0.9 | 0.04 | 0.07 | 0.07 | 87 | 1018.5 | |
| 20260508110019 | 64 | 0.0 | 0.9 | 0.04 | 0.06 | 0.06 | 87 | 1018.7 | |
| 20260508105021 | 64 | 0.0 | 0.9 | 0.04 | 0.06 | 0.06 | 87 | 1018.8 | |
| 20260508104040 | 63 | 0.0 | 0.9 | 0.04 | 0.05 | 0.05 | 87 | 1018.9 | |
| 20260508103019 | 64 | 0 | 0.9 | 2.6 | 0.04 | 0.04 | 0.04 | 86 | 1019.1 |
| 20260508102041 | 64 | 0.0 | 1.7 | 0.04 | 0.04 | 0.04 | 86 | 1019.2 | |
| 20260508101019 | 64 | 0.0 | 1.7 | 0.03 | 0.03 | 0.03 | 85 | 1019.3 | |
| 20260508100020 | 64 | 0.0 | 1.7 | 0.02 | 0.02 | 0.02 | 84 | 1019.5 | |
| 20260508095019 | 64 | 0.0 | 1.7 | 0.02 | 0.02 | 0.02 | 84 | 1019.6 | |
| 20260508094018 | 64 | 0.0 | 0.9 | 0.01 | 0.01 | 0.01 | 83 | 1019.9 | |
| 20260508093017 | 64 | 0.0 | 0.9 | 0.00 | 0.00 | 0.00 | 82 | 1019.7 | |
| 20260508092020 | 64 | 0.0 | 1.7 | 0.00 | 0.00 | 0.00 | 82 | 1019.6 | |
| 20260508091019 | 65 | 0 | 0.9 | 2.6 | 0.00 | 0.00 | 0.00 | 80 | 1019.5 |
| 20260508090019 | 65 | 0 | 0.9 | 2.6 | 0.00 | 0.00 | 0.00 | 79 | 1019.3 |
| 20260508085018 | 65 | 0.0 | 0.9 | 0.00 | 0.00 | 0.00 | 78 | 1019.0 | |
| 20260508084019 | 65 | 0 | 0.9 | 2.6 | 0.00 | 0.00 | 0.00 | 77 | 1018.9 |
| 20260508083023 | 66 | 0 | 0.9 | 3.5 | 0.00 | 0.00 | 0.00 | 75 | 1018.9 |
| 20260508082018 | 67 | 0 | 0.9 | 1.7 | 0.00 | 0.00 | 0.00 | 72 | 1018.9 |
| 20260508081018 | 67 | 0.0 | 1.7 | 0.00 | 0.00 | 0.00 | 71 | 1018.7 | |
| 20260508080019 | 67 | 0.0 | 1.7 | 0.00 | 0.00 | 0.00 | 73 | 1018.2 | |
| 20260508075019 | 66 | 0.0 | 0.9 | 0.00 | 0.00 | 0.00 | 76 | 1018.1 | |
| 20260508074022 | 65 | 0 | 0.9 | 2.6 | 0.00 | 0.00 | 0.00 | 79 | 1018.2 |
| 20260508073020 | 64 | 0.0 | 0.9 | 0.00 | 0.00 | 0.00 | 81 | 1018.2 | |
| 20260508072020 | 64 | 0.0 | 1.7 | 0.00 | 0.00 | 0.00 | 81 | 1018.5 | |
| 20260508071019 | 63 | 0.0 | 0.9 | 0.00 | 0.00 | 0.00 | 81 | 1018.7 | |
| 20260508070043 | 63 | 0.0 | 0.9 | 0.00 | 0.00 | 0.00 | 82 | 1018.9 | |
| 20260508065020 | 63 | 0.0 | 1.7 | 0.00 | 0.00 | 0.00 | 82 | 1018.8 | |
| 20260508064019 | 63 | 0 | 0.9 | 1.7 | 0.00 | 0.00 | 0.00 | 82 | 1018.7 |
| 20260508063020 | 63 | 0 | 1.7 | 4.3 | 0.00 | 0.00 | 0.00 | 83 | 1018.7 |
| 20260508062018 | 63 | 0 | 0.9 | 2.6 | 0.00 | 0.00 | 0.00 | 82 | 1018.4 |
| 20260508061020 | 63 | 0 | 0.9 | 2.6 | 0.00 | 0.00 | 0.00 | 82 | 1018.2 |
| 20260508060018 | 63 | 0.0 | 0.9 | 0.00 | 0.00 | 0.00 | 83 | 1018.1 | |
| 20260508055020 | 63 | 0.0 | 0.0 | 0.00 | 0.00 | 0.00 | 83 | 1017.7 | |
| 20260508054020 | 63 | 0.0 | 0.0 | 0.00 | 0.00 | 0.00 | 83 | 1017.6 | |
| 20260508053019 | 63 | 0.0 | 0.0 | 0.00 | 0.00 | 0.00 | 83 | 1017.6 | |
| 20260508052042 | 63 | 0.0 | 0.9 | 0.00 | 0.00 | 0.00 | 83 | 1017.6 | |
| 20260508051020 | 62 | 0.0 | 0.0 | 0.00 | 0.00 | 0.00 | 83 | 1017.6 | |
| 20260508050020 | 62 | 0.0 | 0.9 | 0.00 | 0.00 | 0.00 | 83 | 1017.6 | |
| 20260508045020 | 62 | 0.0 | 0.0 | 0.00 | 0.00 | 0.00 | 83 | 1017.5 | |
| 20260508044020 | 62 | 0.0 | 0.0 | 0.00 | 0.00 | 0.00 | 83 | 1017.5 | |
| 20260508043019 | 61 | 0.0 | 0.0 | 0.00 | 0.00 | 0.00 | 87 | 1017.3 | |
| 20260508042018 | 61 | 0.0 | 0.0 | 0.00 | 0.00 | 0.00 | 87 | 1017.2 | |
| 20260508041019 | 61 | 0.0 | 0.0 | 0.00 | 0.00 | 0.00 | 87 | 1017.1 | |
| 20260508040020 | 60 | 0.0 | 0.0 | 0.00 | 0.00 | 0.00 | 87 | 1017.1 | |
| 20260508035018 | 60 | 0.0 | 0.0 | 0.00 | 0.00 | 0.00 | 86 | 1017.2 | |
| 20260508034018 | 60 | 0.0 | 0.0 | 0.00 | 0.00 | 0.00 | 86 | 1017.4 | |
| 20260508033018 | 60 | 0.0 | 0.0 | 0.00 | 0.00 | 0.00 | 86 | 1017.5 | |
| 20260508032041 | 60 | 0.0 | 0.0 | 0.00 | 0.00 | 0.00 | 85 | 1017.5 | |
| 20260508031041 | 60 | 0.0 | 0.0 | 0.00 | 0.00 | 0.00 | 85 | 1017.3 | |
| 20260508030018 | 60 | 0.0 | 0.0 | 0.00 | 0.00 | 0.00 | 85 | 1017.3 | |
| 20260508025020 | 60 | 0.0 | 0.0 | 0.00 | 0.00 | 0.00 | 84 | 1017.4 | |
| 20260508024020 | 61 | 0.0 | 0.0 | 0.00 | 0.00 | 0.00 | 84 | 1017.3 | |
| 20260508023020 | 61 | 0.0 | 0.0 | 0.00 | 0.00 | 0.00 | 83 | 1017.2 | |
| 20260508022018 | 61 | 0.0 | 0.0 | 0.00 | 0.00 | 0.00 | 83 | 1017.1 | |
| 20260508021018 | 61 | 0.0 | 0.0 | 0.00 | 0.00 | 0.00 | 82 | 1017.0 | |
| 20260508020021 | 61 | 0.0 | 0.0 | 0.00 | 0.00 | 0.00 | 82 | 1017.0 | |
| 20260508015020 | 61 | 0.0 | 0.0 | 0.00 | 0.00 | 0.00 | 81 | 1017.1 | |
| 20260508014041 | 61 | 0.0 | 0.0 | 0.00 | 0.00 | 0.00 | 81 | 1017.1 | |
| 20260508013020 | 61 | 0.0 | 0.0 | 0.00 | 0.00 | 0.00 | 81 | 1017.1 | |
| 20260508012018 | 61 | 0.0 | 0.0 | 0.00 | 0.00 | 0.00 | 81 | 1017.2 | |
| 20260508011017 | 61 | 0.0 | 0.0 | 0.00 | 0.00 | 0.00 | 80 | 1017.4 | |
| 20260508010018 | 61 | 0.0 | 0.0 | 0.00 | 0.00 | 0.00 | 80 | 1017.5 | |
| 20260508005017 | 61 | 0.0 | 0.0 | 0.00 | 0.00 | 0.00 | 80 | 1017.5 | |
| 20260508004019 | 61 | 0.0 | 0.0 | 0.00 | 0.00 | 0.00 | 80 | 1017.6 | |
| 20260508003019 | 61 | 0.0 | 0.0 | 0.00 | 0.00 | 0.00 | 80 | 1017.7 | |
| 20260508002018 | 61 | 0.0 | 0.0 | 0.00 | 0.00 | 0.00 | 80 | 1017.8 | |
| 20260508001017 | 61 | 0.0 | 0.0 | 0.00 | 0.00 | 0.00 | 80 | 1017.8 | |
| 20260508000041 | 61 | 0.0 | 0.0 | 0.00 | 0.00 | 0.00 | 79 | 1017.9 | |
| 20260507235018 | 61 | 0.0 | 0.0 | 0.00 | 0.00 | 0.00 | 79 | 1017.9 | |
| 20260507234018 | 61 | 0.0 | 0.0 | 0.00 | 0.00 | 0.00 | 79 | 1017.9 | |
| 20260507233017 | 61 | 0.0 | 0.0 | 0.00 | 0.00 | 0.00 | 79 | 1017.9 | |
| 20260507232040 | 62 | 0.0 | 0.0 | 0.00 | 0.00 | 0.00 | 79 | 1018.0 | |
| 20260507231019 | 62 | 0.0 | 0.0 | 0.00 | 0.00 | 0.00 | 79 | 1018.2 | |
| 20260507230017 | 62 | 0.0 | 0.0 | 0.00 | 0.00 | 0.00 | 78 | 1018.3 |